"Period start","avg(HW err(1)/warn(2) (#))","avg(Visibility (m))","avg(Weather code (#))","avg(Precip intensity (mm/h))","min(HW err(1)/warn(2) (#))","max(HW err(1)/warn(2) (#))","std(HW err(1)/warn(2) (#))","med(HW err(1)/warn(2) (#))","min(Visibility (m))","max(Visibility (m))","std(Visibility (m))","med(Visibility (m))","min(Weather code (#))","max(Weather code (#))","std(Weather code (#))","med(Weather code (#))","min(Precip intensity (mm/h))","max(Precip intensity (mm/h))","std(Precip intensity (mm/h))","med(Precip intensity (mm/h))"
2017-01-27 00:00:00,1,,,,1,1,0,1,,,,,,,,,,,,
2017-01-27 00:10:00,1,,,,1,1,0,1,,,,,,,,,,,,
2017-01-27 00:20:00,1,,,,1,1,0,1,,,,,,,,,,,,
2017-01-27 00:30:00,1,,,,1,1,0,1,,,,,,,,,,,,
2017-01-27 00:40:00,1,,,,1,1,0,1,,,,,,,,,,,,
2017-01-27 00:50:00,1,,,,1,1,0,1,,,,,,,,,,,,
2017-01-27 01:00:00,1,,,,1,1,0,1,,,,,,,,,,,,
2017-01-27 01:10:00,1,,,,1,1,0,1,,,,,,,,,,,,
2017-01-27 01:20:00,1,,,,1,1,0,1,,,,,,,,,,,,
2017-01-27 01:30:00,1,,,,1,1,0,1,,,,,,,,,,,,
2017-01-27 01:40:00,1,,,,1,1,0,1,,,,,,,,,,,,
2017-01-27 01:50:00,1,,,,1,1,0,1,,,,,,,,,,,,
2017-01-27 02:00:00,1,,,,1,1,0,1,,,,,,,,,,,,
2017-01-27 02:10:00,1,,,,1,1,0,1,,,,,,,,,,,,
2017-01-27 02:20:00,1,,,,1,1,0,1,,,,,,,,,,,,
2017-01-27 02:30:00,1,,,,1,1,0,1,,,,,,,,,,,,
2017-01-27 02:40:00,1,,,,1,1,0,1,,,,,,,,,,,,
2017-01-27 02:50:00,1,,,,1,1,0,1,,,,,,,,,,,,
2017-01-27 03:00:00,1,,,,1,1,0,1,,,,,,,,,,,,
2017-01-27 03:10:00,1,,,,1,1,0,1,,,,,,,,,,,,
2017-01-27 03:20:00,1,,,,1,1,0,1,,,,,,,,,,,,
2017-01-27 03:30:00,1,,,,1,1,0,1,,,,,,,,,,,,
2017-01-27 03:40:00,1,,,,1,1,0,1,,,,,,,,,,,,
2017-01-27 03:50:00,1,,,,1,1,0,1,,,,,,,,,,,,
2017-01-27 04:00:00,1,,,,1,1,0,1,,,,,,,,,,,,
2017-01-27 04:10:00,1,,,,1,1,0,1,,,,,,,,,,,,
2017-01-27 04:20:00,1,,,,1,1,0,1,,,,,,,,,,,,
2017-01-27 04:30:00,1,,,,1,1,0,1,,,,,,,,,,,,
2017-01-27 04:40:00,1,,,,1,1,0,1,,,,,,,,,,,,
2017-01-27 04:50:00,1,,,,1,1,0,1,,,,,,,,,,,,
2017-01-27 05:00:00,1,,,,1,1,0,1,,,,,,,,,,,,
2017-01-27 05:10:00,1,,,,1,1,0,1,,,,,,,,,,,,
2017-01-27 05:20:00,1,,,,1,1,0,1,,,,,,,,,,,,
2017-01-27 05:30:00,1,0,78,0.10,1,2,0,1,0,0,0,0,78,78,0,78,0.10,0.10,0.00,0.10
2017-01-27 05:40:00,1,,,,1,1,0,1,,,,,,,,,,,,
2017-01-27 05:50:00,1,,,,1,1,0,1,,,,,,,,,,,,
2017-01-27 06:00:00,1,,,,1,1,0,1,,,,,,,,,,,,
2017-01-27 06:10:00,1,,,,1,1,0,1,,,,,,,,,,,,
2017-01-27 06:20:00,1,,,,1,1,0,1,,,,,,,,,,,,
2017-01-27 06:30:00,1,,,,1,1,0,1,,,,,,,,,,,,
2017-01-27 06:40:00,1,,,,1,1,0,1,,,,,,,,,,,,
2017-01-27 06:50:00,1,,,,1,1,0,1,,,,,,,,,,,,
2017-01-27 07:00:00,1,,,,1,1,0,1,,,,,,,,,,,,
2017-01-27 07:10:00,1,,,,1,1,0,1,,,,,,,,,,,,
2017-01-27 07:20:00,1,,,,1,1,0,1,,,,,,,,,,,,
2017-01-27 07:30:00,1,,,,1,1,0,1,,,,,,,,,,,,
2017-01-27 07:40:00,1,398,74,0.12,1,2,0,1,0,796,398,398,71,77,3,74,0.10,0.15,0.02,0.12
2017-01-27 07:50:00,2,770,78,0.19,1,2,0,2,0,1111,314,814,78,78,0,78,0.05,0.40,0.12,0.17
2017-01-27 08:00:00,2,860,76,0.54,1,2,0,2,0,1174,438,993,72,77,2,77,0.20,1.40,0.45,0.30
2017-01-27 08:10:00,1,0,72,0.40,1,2,0,1,0,0,0,0,72,72,0,72,0.40,0.40,0.00,0.40
2017-01-27 08:20:00,1,,,,1,1,0,1,,,,,,,,,,,,
2017-01-27 08:30:00,1,0,72,0.95,1,2,0,1,0,0,0,0,72,72,0,72,0.95,0.95,0.00,0.95
2017-01-27 08:40:00,2,1464,76,0.01,1,2,0,2,916,2663,531,1394,72,78,2,78,0.00,0.10,0.03,0.00
2017-01-27 08:50:00,2,1879,36,0.00,2,2,0,2,1397,2528,326,1835,10,77,31,10,0.00,0.00,0.00,0.00
2017-01-27 09:00:00,2,1160,78,0.08,2,2,0,2,730,1580,244,1208,78,78,0,78,0.00,0.25,0.07,0.05
2017-01-27 09:10:00,1,1452,78,0.05,1,2,0,1,1452,1452,0,1452,78,78,0,78,0.05,0.05,0.00,0.05
2017-01-27 09:20:00,1,0,78,0.00,1,2,0,1,0,0,0,0,78,78,0,78,0.00,0.00,0.00,0.00
2017-01-27 09:30:00,1,265,78,0.07,1,2,0,1,0,794,374,0,78,78,0,78,0.05,0.10,0.02,0.05
2017-01-27 09:40:00,1,0,78,0.30,1,2,0,1,0,0,0,0,78,78,0,78,0.15,0.45,0.15,0.30
2017-01-27 09:50:00,1,,,,1,1,0,1,,,,,,,,,,,,
2017-01-27 10:00:00,1,,,,1,1,0,1,,,,,,,,,,,,
2017-01-27 10:10:00,1,,,,1,1,0,1,,,,,,,,,,,,
2017-01-27 10:20:00,1,,,,1,1,0,1,,,,,,,,,,,,
2017-01-27 10:30:00,2,1461,74,0.05,1,2,0,2,0,2242,678,1524,71,78,3,74,0.00,0.25,0.08,0.03
2017-01-27 10:40:00,2,868,78,0.17,2,2,0,2,443,1114,195,914,78,78,0,78,0.05,0.70,0.18,0.10
2017-01-27 10:50:00,2,654,75,0.45,1,2,0,2,0,1120,398,712,71,78,3,77,0.10,1.05,0.29,0.45
2017-01-27 11:00:00,1,432,73,0.39,1,2,0,1,0,905,433,412,71,77,2,72,0.10,1.10,0.42,0.17
2017-01-27 11:10:00,1,0,72,1.25,1,2,0,1,0,0,0,0,72,72,0,72,1.25,1.25,0.00,1.25
2017-01-27 11:20:00,1,218,77,0.25,1,2,0,1,0,435,218,218,77,77,0,77,0.25,0.25,0.00,0.25
2017-01-27 11:30:00,1,643,78,0.10,1,2,0,1,0,897,373,837,78,78,0,78,0.05,0.15,0.04,0.10
2017-01-27 11:40:00,2,787,78,0.14,2,2,0,2,540,1011,160,748,78,78,0,78,0.05,0.30,0.08,0.12
2017-01-27 11:50:00,2,916,78,0.16,1,2,0,2,679,1154,172,896,77,78,0,78,0.05,0.40,0.14,0.10
2017-01-27 12:00:00,2,834,76,0.12,1,2,0,2,0,1333,403,967,71,78,3,77,0.00,0.25,0.08,0.10
2017-01-27 12:10:00,2,394,76,0.27,1,2,0,2,0,888,402,320,71,78,2,77,0.15,0.50,0.11,0.25
2017-01-27 12:20:00,1,,,,1,1,0,1,,,,,,,,,,,,
2017-01-27 12:30:00,1,,,,1,1,0,1,,,,,,,,,,,,
2017-01-27 12:40:00,1,0,71,0.28,1,2,0,1,0,0,0,0,71,71,0,71,0.20,0.35,0.08,0.28
2017-01-27 12:50:00,2,1276,77,0.04,2,2,0,2,0,2123,519,1270,71,78,2,78,0.00,0.15,0.04,0.05
2017-01-27 13:00:00,2,947,78,0.13,2,2,0,2,663,1466,252,874,77,78,0,78,0.00,0.35,0.11,0.12
2017-01-27 13:10:00,2,667,75,0.25,2,2,0,2,516,912,136,624,71,78,3,77,0.05,0.75,0.19,0.15
2017-01-27 13:20:00,2,659,73,0.37,2,2,0,2,0,973,257,672,71,77,3,71,0.10,0.80,0.24,0.23
2017-01-27 13:30:00,2,1000,78,0.14,2,2,0,2,769,1286,163,1042,78,78,0,78,0.05,0.35,0.09,0.10
2017-01-27 13:40:00,2,2011,78,0.01,2,2,0,2,1286,2656,433,2015,78,78,0,78,0.00,0.05,0.02,0.00
2017-01-27 13:50:00,2,872,78,0.18,2,2,0,2,485,1455,281,794,78,78,0,78,0.00,0.50,0.17,0.10
2017-01-27 14:00:00,1,293,73,0.85,1,2,0,1,0,821,337,176,72,77,2,72,0.55,1.15,0.22,0.85
2017-01-27 14:10:00,1,,,,1,1,0,1,,,,,,,,,,,,
2017-01-27 14:20:00,1,,,,1,1,0,1,,,,,,,,,,,,
2017-01-27 14:30:00,1,,,,1,1,0,1,,,,,,,,,,,,
2017-01-27 14:40:00,1,286,72,0.54,1,2,0,1,0,1142,495,0,71,72,0,72,0.15,0.95,0.31,0.53
2017-01-27 14:50:00,2,1008,75,0.03,2,2,0,2,811,1121,95,1032,71,78,3,77,0.00,0.05,0.03,0.03
2017-01-27 15:00:00,2,1377,78,0.00,2,2,0,2,1055,1758,240,1286,78,78,0,78,0.00,0.00,0.00,0.00
2017-01-27 15:10:00,2,891,65,0.04,2,2,0,2,551,1492,233,833,20,78,23,78,0.00,0.10,0.03,0.05
2017-01-27 15:20:00,2,789,78,0.09,2,2,0,2,567,1064,158,766,78,78,0,78,0.00,0.20,0.07,0.08
2017-01-27 15:30:00,2,518,76,0.64,2,2,0,2,326,794,130,494,72,78,3,78,0.10,1.45,0.48,0.38
2017-01-27 15:40:00,2,591,73,0.38,2,2,0,2,483,732,79,579,71,77,2,72,0.10,0.85,0.23,0.30
2017-01-27 15:50:00,2,701,78,0.18,2,2,0,2,521,853,86,688,77,78,0,78,0.10,0.30,0.07,0.17
2017-01-27 16:00:00,2,645,77,0.25,2,2,0,2,479,872,112,616,77,78,0,77,0.05,0.55,0.14,0.20
2017-01-27 16:10:00,2,814,78,0.16,2,2,0,2,607,1085,168,746,77,78,0,78,0.05,0.35,0.09,0.10
2017-01-27 16:20:00,2,1145,78,0.07,2,2,0,2,676,1707,317,1032,78,78,0,78,0.00,0.25,0.07,0.05
2017-01-27 16:30:00,2,792,78,0.14,2,2,0,2,516,994,142,834,78,78,0,78,0.05,0.25,0.07,0.10
2017-01-27 16:40:00,2,645,78,0.28,2,2,0,2,500,771,106,662,78,78,0,78,0.10,0.45,0.12,0.30
2017-01-27 16:50:00,2,526,78,0.28,1,2,0,2,414,691,87,506,78,78,0,78,0.10,0.90,0.23,0.20
2017-01-27 17:00:00,2,548,74,0.49,2,2,0,2,364,673,90,553,72,77,2,72,0.20,1.10,0.31,0.30
2017-01-27 17:10:00,2,515,75,0.67,2,2,0,2,272,629,117,570,72,77,2,77,0.20,1.80,0.44,0.57
2017-01-27 17:20:00,2,423,72,1.06,2,2,0,2,286,534,80,440,72,72,0,72,0.65,2.40,0.49,0.90
2017-01-27 17:30:00,2,544,72,1.08,2,2,0,2,282,868,213,498,71,72,0,72,0.15,3.90,1.15,0.55
2017-01-27 17:40:00,2,523,74,0.66,2,2,0,2,0,793,230,598,71,77,3,72,0.15,2.35,0.67,0.33
2017-01-27 17:50:00,2,232,72,3.15,1,2,0,2,0,531,205,295,72,72,0,72,0.95,7.80,2.47,2.85
2017-01-27 18:00:00,1,0,72,2.03,1,2,0,1,0,0,0,0,72,72,0,72,1.60,2.45,0.43,2.03
2017-01-27 18:10:00,2,686,71,0.45,2,2,0,2,0,1033,266,764,71,72,0,71,0.10,2.10,0.56,0.35
2017-01-27 18:20:00,2,831,74,0.30,2,2,0,2,518,1017,163,852,71,77,3,74,0.15,0.55,0.13,0.30
2017-01-27 18:30:00,2,427,74,1.29,2,2,0,2,229,778,163,450,71,77,3,75,0.40,2.45,0.60,1.20
2017-01-27 18:40:00,2,131,73,9.12,2,2,0,2,91,172,24,134,73,73,0,73,3.50,26.35,6.18,6.83
2017-01-27 18:50:00,2,115,73,16.53,2,2,0,2,77,157,22,114,73,73,0,73,8.85,31.80,6.42,15.07
2017-01-27 19:00:00,2,113,73,19.21,2,2,0,2,78,147,18,114,73,73,0,73,11.50,23.75,3.80,20.02
2017-01-27 19:10:00,2,114,73,17.48,2,2,0,2,91,155,20,108,73,73,0,73,7.70,23.40,5.09,18.25
2017-01-27 19:20:00,2,119,73,14.88,2,2,0,2,98,146,17,113,73,73,0,73,8.95,23.45,4.28,13.25
2017-01-27 19:30:00,2,120,73,14.01,2,2,0,2,94,152,17,116,73,73,0,73,8.30,19.80,3.65,14.80
2017-01-27 19:40:00,2,160,73,7.07,2,2,0,2,133,185,18,161,73,73,0,73,4.90,11.35,2.01,6.12
2017-01-27 19:50:00,2,173,73,5.05,2,2,0,2,137,254,39,152,73,73,0,73,2.05,8.60,2.03,5.17
2017-01-27 20:00:00,2,182,73,6.34,2,2,0,2,119,253,36,176,73,73,0,73,3.35,15.55,3.34,5.20
2017-01-27 20:10:00,2,247,73,3.41,2,2,0,2,140,363,59,254,73,73,0,73,0.95,5.50,1.24,3.17
2017-01-27 20:20:00,2,270,73,3.08,2,2,0,2,170,357,59,272,73,73,0,73,1.15,4.80,1.11,3.33
2017-01-27 20:30:00,2,317,73,2.30,2,2,0,2,230,418,66,307,73,73,0,73,0.70,6.85,1.61,1.95
2017-01-27 20:40:00,2,422,72,1.07,2,2,0,2,291,531,78,420,72,73,0,72,0.40,1.95,0.49,0.90
2017-01-27 20:50:00,2,476,72,0.70,2,2,0,2,328,578,77,466,72,72,0,72,0.25,1.60,0.38,0.62
2017-01-27 21:00:00,2,581,76,0.66,2,2,0,2,427,760,106,568,72,77,2,77,0.40,0.80,0.12,0.65
2017-01-27 21:10:00,2,721,78,0.46,2,2,0,2,630,854,57,712,77,78,0,78,0.20,0.65,0.14,0.50
2017-01-27 21:20:00,2,822,78,0.46,2,2,0,2,743,899,47,826,77,78,0,78,0.35,0.60,0.08,0.45
2017-01-27 21:30:00,2,857,78,0.31,2,2,0,2,621,988,105,884,77,78,0,78,0.15,0.45,0.11,0.30
2017-01-27 21:40:00,2,918,78,0.31,2,2,0,2,677,1151,130,884,78,78,0,78,0.10,0.40,0.11,0.35
2017-01-27 21:50:00,2,1017,78,0.10,2,2,0,2,913,1274,125,951,78,78,0,78,0.05,0.15,0.02,0.10
2017-01-27 22:00:00,2,944,78,0.11,2,2,0,2,707,1206,150,911,78,78,0,78,0.05,0.30,0.07,0.10
2017-01-27 22:10:00,2,1240,78,0.09,2,2,0,2,978,1698,207,1149,78,78,0,78,0.05,0.20,0.05,0.08
2017-01-27 22:20:00,2,887,78,0.21,2,2,0,2,740,1056,120,842,78,78,0,78,0.10,0.35,0.09,0.20
2017-01-27 22:30:00,2,657,78,0.40,2,2,0,2,559,954,117,606,77,78,0,78,0.20,0.60,0.11,0.40
2017-01-27 22:40:00,2,631,78,0.36,2,2,0,2,447,858,134,609,77,78,0,78,0.10,0.80,0.21,0.38
2017-01-27 22:50:00,2,1023,78,0.07,2,2,0,2,797,1361,170,1063,78,78,0,78,0.05,0.10,0.02,0.05
2017-01-27 23:00:00,2,608,78,0.28,2,2,0,2,368,768,110,622,77,78,0,78,0.10,0.75,0.20,0.17
2017-01-27 23:10:00,2,720,76,0.26,2,2,0,2,419,1019,179,718,71,78,3,77,0.05,0.65,0.21,0.23
2017-01-27 23:20:00,2,680,78,0.33,2,2,0,2,290,1113,272,594,77,78,0,78,0.05,1.00,0.31,0.20
2017-01-27 23:30:00,2,509,74,0.51,1,2,0,2,336,653,105,500,71,77,3,77,0.10,1.10,0.32,0.35
2017-01-27 23:40:00,2,422,74,0.93,2,2,0,2,196,641,135,454,72,77,2,73,0.25,1.95,0.65,0.75
2017-01-27 23:50:00,2,654,78,0.15,2,2,0,2,525,729,79,695,77,78,0,78,0.10,0.25,0.05,0.12
